User: anonymous   Login
Location: Oshawa
(43.9000°N, 78.8670°W)
Time: 18:16:57
(UTC-04:00)
Language:

Cosmos 839 Rocket - Orbit

View from above orbital plane
View from above orbital plane
View from above satellite
View from above satellite

Ground track
Ground track

The orbit data is extracted from the following two-line orbital elements,

1  9013U 76067B   15238.92471730 -.00000064 +00000-0 -28249-4 0  9992
2  9013 065.8626 208.4312 0718602 331.1890 056.0599 12.35317476764850
Epoch (UTC): 26 August 2015 22:11:35
Eccentricity: 0.0718602
inclination: 65.8626°
perigee height: 958 km
apogee height: 2094 km
right ascension of ascending node: 208.4312°
argument of perigee: 331.1890°
revolutions per day: 12.35317476
mean anomaly at epoch: 56.0599°
orbit number at epoch: 76485

The dashed part of the orbit path shows where the satellite is in the earth's shadow,  

DLR